TimeMDT,TemperatureF,Dew PointF,Humidity,Sea Level PressureIn,VisibilityMPH,Wind Direction,Wind SpeedMPH,Gust SpeedMPH,PrecipitationIn,Events,Conditions,WindDirDegrees,DateUTC
12:00 AM,23,20,83,30.57,,ENE,2.3,,,,,60,2012-10-04 06:00:00
12:00 AM,23.0,19.9,88,30.57,-9999.0,ENE,2.3,-,N/A,,Unknown,60,2012-10-04 06:00:00
2:00 AM,19.4,17.4,92,30.57,-9999.0,East,2.3,-,N/A,,Unknown,80,2012-10-04 08:00:00
3:00 AM,19.6,17.2,91,30.57,-9999.0,East,2.3,-,N/A,,Unknown,80,2012-10-04 09:00:00
4:00 AM,18.7,16.5,91,30.56,-9999.0,ENE,2.3,-,N/A,,Unknown,70,2012-10-04 10:00:00
5:00 AM,17.6,15.4,91,30.56,-9999.0,East,3.5,-,N/A,,Unknown,80,2012-10-04 11:00:00
6:00 AM,17,15,89,30.56,,ENE,2.3,,,,,70,2012-10-04 12:00:00
6:00 AM,17.4,15.3,91,30.56,-9999.0,ENE,2.3,-,N/A,,Unknown,70,2012-10-04 12:00:00
7:00 AM,16.7,14.9,93,30.58,-9999.0,East,2.3,-,N/A,,Unknown,80,2012-10-04 13:00:00
8:00 AM,15.8,13.6,91,30.59,-9999.0,East,3.5,-,N/A,,Unknown,80,2012-10-04 14:00:00
9:00 AM,16.7,14.9,93,30.59,-9999.0,ENE,2.3,-,N/A,,Unknown,60,2012-10-04 15:00:00
10:00 AM,24.1,19.9,84,30.57,-9999.0,SE,1.2,-,N/A,,Unknown,140,2012-10-04 16:00:00
11:00 AM,30.0,20.5,68,30.54,-9999.0,West,1.2,-,N/A,,Unknown,260,2012-10-04 17:00:00
12:00 PM,36,23,46,30.51,,WSW,3.5,,,,,250,2012-10-04 18:00:00
12:00 PM,36.5,22.8,58,30.51,-9999.0,WSW,3.5,-,N/A,,Unknown,250,2012-10-04 18:00:00
1:00 PM,41.4,17.8,39,30.48,-9999.0,WSW,6.9,-,N/A,,Unknown,250,2012-10-04 19:00:00
2:00 PM,39.7,18.0,42,30.49,-9999.0,WSW,6.9,-,N/A,,Unknown,250,2012-10-04 20:00:00
3:00 PM,39.9,14.9,36,30.48,-9999.0,WSW,8.1,-,N/A,,Unknown,240,2012-10-04 21:00:00
4:00 PM,41.0,18.0,40,30.47,-9999.0,SW,8.1,-,N/A,,Unknown,230,2012-10-04 22:00:00
5:00 PM,41.0,18.9,41,30.47,-9999.0,WSW,6.9,-,N/A,,Unknown,250,2012-10-04 23:00:00
6:00 PM,36,24,48,30.49,,South,2.3,,,,,190,2012-10-05 00:00:00
6:00 PM,36.0,23.5,61,30.49,-9999.0,South,2.3,-,N/A,,Unknown,190,2012-10-05 00:00:00
7:00 PM,31.6,22.8,70,30.51,-9999.0,Calm,Calm,-,N/A,,Unknown,0,2012-10-05 01:00:00
8:00 PM,29.5,18.7,64,30.53,-9999.0,NNW,1.2,-,N/A,,Unknown,340,2012-10-05 02:00:00
9:00 PM,28.6,19.9,70,30.53,-9999.0,Calm,Calm,-,N/A,,Unknown,0,2012-10-05 03:00:00
10:00 PM,27.9,20.3,73,30.51,-9999.0,East,2.3,-,N/A,,Unknown,80,2012-10-05 04:00:00
11:00 PM,24.1,18.3,79,30.51,-9999.0,ENE,2.3,-,N/A,,Unknown,70,2012-10-05 05:00:00